Squamish, British Columbia

9:42 PM PST on November 22, 2017 (GMT -0800)
Squamish

Weather History for CWSK - October, 2013

Change the Weather History Date:

Friday, October 4, 2013

  Actual Average Record
Temperature  
Mean Temperature 44 °F -  
Max Temperature 55 °F - - ()
Min Temperature 34 °F - - ()
Degree Days  
Heating Degree Days 20    
Moisture  
Dew Point 42 °F    
Average Humidity 88    
Maximum Humidity 99    
Minimum Humidity 58    
Precipitation  
Precipitation 0.00 in - - ()
Sea Level Pressure  
Sea Level Pressure 30.45 in    
Wind  
Wind Speed 2 mph ()    
Max Wind Speed 4 mph    
Max Gust Speed -    
T = Trace of Precipitation, MM = Missing Value Source: Averaged Metar Reports

Daily Weather History Graph

Daily Weather History Graph

Search for Another Location

Airport or City:

Trip Planner

Search our weather history database for the weather conditions in past years. The results will help you decide how hot, cold, wet, or windy it might be!

Date:

Astronomy

Oct. 04, 2013 Rise Set
Actual Time 7:17 AM PDT 6:43 PM PDT
Civil Twilight 6:45 AM PDT 7:15 PM PDT
Nautical Twilight 6:08 AM PDT 7:53 PM PDT
Astronomical Twilight 5:30 AM PDT 8:30 PM PDT
Moon 7:00 AM PDT (10/4) 6:25 PM PDT (10/4)
Length of Visible Light 12h 30m
Length of Day
11h 26m
Waning Crescent, 0% of the Moon is Illuminated
Oct 4
Waning Crescent
Oct 4
New
Oct 11
First Quarter
Oct 18
Full
Oct 26
Last Quarter

Hourly Weather History & Observations

Time (PDT) Temp. Dew Point Humidity Pressure Visibility Wind Dir Wind Speed Gust Speed Precip Events Conditions
12:00 AM 39.7 °F 38.8 °F 97% 30.47 in - North 1.2 mph - N/A   Unknown
1:00 AM 39.4 °F 38.7 °F 97% 30.48 in - East 1.2 mph - N/A   Unknown
2:00 AM 38 °F 37 °F 97% 30.49 in - NNE 2.3 mph - -  
2:00 AM 37.9 °F 37.4 °F 98% 30.49 in - NNE 2.3 mph - N/A   Unknown
3:00 AM 38.1 °F 37.6 °F 98% 30.49 in - NNE 2.3 mph - N/A   Unknown
4:00 AM 37.2 °F 36.7 °F 98% 30.47 in - NNE 1.2 mph - N/A   Unknown
5:00 AM 37 °F 36 °F 95% 30.48 in - NNE 1.2 mph - -  
5:00 AM 36.7 °F 36.1 °F 98% 30.48 in - NNE 1.2 mph - N/A   Unknown
6:00 AM 36.0 °F 35.6 °F 99% 30.48 in - NE 2.3 mph - N/A   Unknown
7:00 AM 36.0 °F 35.6 °F 99% 30.51 in - North 1.2 mph - N/A   Unknown
8:00 AM 36 °F 36 °F 98% 30.49 in - NNW 2.3 mph - -  
8:00 AM 36.0 °F 35.6 °F 99% 30.49 in - NNW 2.3 mph - N/A   Unknown
9:00 AM 40.3 °F 39.7 °F 98% 30.49 in - NNW 1.2 mph - N/A   Unknown
10:00 AM 43.3 °F 42.3 °F 96% 30.50 in - West 2.3 mph - N/A   Unknown
11:00 AM 48 °F 44 °F 81% 30.48 in - NW 2.3 mph - -  
11:00 AM 47.7 °F 43.9 °F 87% 30.48 in - NW 2.3 mph - N/A   Unknown
12:00 PM 50.2 °F 44.2 °F 80% 30.47 in - NW 2.3 mph - N/A   Unknown
1:00 PM 52.0 °F 43.2 °F 72% 30.45 in - WSW 2.3 mph - N/A   Unknown
2:00 PM 54 °F 43 °F 58% 30.43 in - West 2.3 mph - -  
2:00 PM 54.1 °F 43.3 °F 67% 30.43 in - West 2.3 mph - N/A   Unknown
3:00 PM 53.8 °F 43.5 °F 68% 30.41 in - NNW 1.2 mph - N/A   Unknown
4:00 PM 53.2 °F 44.4 °F 72% 30.42 in - NW 2.3 mph - N/A   Unknown
5:00 PM 53 °F 45 °F 66% 30.40 in - NW 2.3 mph - -  
5:00 PM 52.7 °F 45.0 °F 75% 30.40 in - NW 2.3 mph - N/A   Unknown
6:00 PM 51.3 °F 45.1 °F 80% 30.40 in - NNW 2.3 mph - N/A   Unknown
7:00 PM 49.5 °F 46.6 °F 90% 30.38 in - North 1.2 mph - N/A   Unknown
8:00 PM 49 °F 46 °F 84% 30.39 in - NW 2.3 mph - -  
8:00 PM 48.7 °F 45.7 °F 89% 30.39 in - NW 2.3 mph - N/A   Unknown
9:00 PM 48.2 °F 46.0 °F 92% 30.38 in - North 3.5 mph - N/A   Unknown
10:00 PM 48.2 °F 45.7 °F 91% 30.38 in - NNW 1.2 mph - N/A   Unknown
11:00 PM 48 °F 46 °F 89% 30.38 in - North 2.3 mph - -  
11:00 PM 48.0 °F 45.7 °F 92% 30.38 in - North 2.3 mph - N/A   Unknown